Find Starlink 35734

NORAD ID: 66225 Int'l Des: 2025-244 Owner: SPXS Country: US Constellation: starlink operational
LEOCIRCULAR

Current View

Loading 3D Globe...

About Starlink 35734

Starlink 35734 (NORAD 66225) is a starlink constellation satellite (v2 mini) launched Oct 28, 2025 by SPXS of US. It operates in LEO, CIRCULAR orbit with a mass of 575.00 kg.

Upcoming Passes

Passes for default location (London). Set your location on the main map for personalized predictions.

Altitude History

Loading altitude history...

Two-Line Element Set

1 66225U 25244V 26237.06969260 .00024870 00000-0 74420-3 0 9997
2 66225 53.1601 167.4900 0001260 81.2509 278.8636 15.34423068 47445
Epoch: Aug 25, 2026 • Age: 15 hours

Current Status

Altitude 474.0 km
Apogee / Perigee N/A
Velocity 7.63 km/s
Sub-Earth Point -34.20°S, 150.3°E
Launch Date Oct 28, 2025
Age 0.8 years
Type internet

Technical Details

Classification Payload
Mass 575.00 kg
Dry Mass 530.00 kg
Total Mass 575.00 kg
Length 0.30 m
Diameter 4.10 m
Span 29.00 m
Shape Box + pan
Manufacturer SPXS
Bus Type Starlink V2MO
Phase Status In Orbit
Owner/State SPXS/US

Most Searched